Preview of NWS' New Version of Forecast
This preview is not operational and should not be used for support decisions.

Regional Weather Roundup (RWR)

Issued by National Weather Service (NWS)

                            
000
ASUS43 KDMX 181601
RWRIA 

WEATHER ROUNDUP FOR IOWA
NATIONAL WEATHER SERVICE DES MOINES IA
1000 AM CST MON FEB 18 2019

NOTE: "FAIR" INDICATES FEW OR NO CLOUDS BELOW 12,000 FEET WITH NO
SIGNIFICANT WEATHER AND/OR OBSTRUCTIONS TO VISIBILITY.

* - THESE STATIONS ARE NOT NWS STATIONS...THUS NOT UNDER NWS
QUALITY CONTROL.  THEY ALSO DO NOT REPORT WEATHER SUCH 
AS PRECIPITATION OR FOG.  

IAZ001>003-012>014-020>022-031>034-043>046-181700-
   NORTHWEST IOWA
  
CITY           SKY/WX    TMP DP  RH WIND       PRES   REMARKS
CARROLL *      SUNNY     10   5  79 NW10      30.44R WCI  -3          
CHEROKEE *     SUNNY      9   2  73 CALM      30.44R                  
DENISON *      SUNNY     10   5  79 NW6       30.46R WCI   1          
LE MARS *      SUNNY      7   1  78 W7        30.47R WCI  -5          
ORANGE CITY *  SUNNY      7   3  85 NW8       30.42R WCI  -6          
SHELDON *      SUNNY      3   1  92 NW5       30.41R WCI  -6          
SIOUX CITY     SUNNY      8   2  76 NW14      30.47R WCI  -8          
SPENCER        SUNNY      8   0  69 N12       30.42R WCI  -7          
STORM LAKE *   SUNNY      7   1  78 N6        30.41R WCI  -3          
$$
 
IAZ055>058-069>071-079>083-090>094-181700-
   SOUTHWEST IOWA
  
CITY           SKY/WX    TMP DP  RH WIND       PRES   REMARKS
ATLANTIC *     SUNNY     10  10 100 N9        30.44S WCI  -2          
AUDUBON *      SUNNY     12   9  85 CALM      30.43R                  
CLARINDA *     CLOUDY    16  10  79 N8        30.48R WCI   5          
COUNCIL BLFS * SUNNY     14  12  92 NW9       30.45R WCI   2          
CRESTON *      PTSUNNY   18  14  86 N13       30.41S WCI   4          
HARLAN  *      SUNNY     10   7  85 N6        30.44S WCI   1          
LAMONI         CLOUDY    19  14  81 NW8       30.39S WCI   9          
RED OAK *      SUNNY     14   9  79 NW5       30.46R WCI   6          
SHENANDOAH *   PTSUNNY   14  10  85 VRB5      30.48R WCI   6          
$$
 
IAZ047>049-059>061-072>074-084-181700-
   CENTRAL IOWA
  
CITY           SKY/WX    TMP DP  RH WIND       PRES   REMARKS
AMES           MOSUNNY   13   7  77 NW7       30.44R WCI   3          
ANKENY *       SUNNY     14   9  79 NW10      30.45R WCI   1          
BOONE *        SUNNY     10   7  85 NW8       30.42R WCI  -1          
CHARITON *     SUNNY     18  16  93 NW7       30.40S WCI   8          
DES MOINES     MOSUNNY   16  11  80 NW9       30.43R WCI   4          
GRINNELL*      SUNNY     13  11  93 NW9       30.41R WCI   0          
KNOXVILLE *    MOSUNNY   16  16 100 NW12      30.41R WCI   3          
MARSHALLTOWN   MOSUNNY    9   6  88 NW7       30.41R WCI  -2          
NEWTON *       MOSUNNY   16  12  86 N13       30.41R WCI   2          
PELLA *        SUNNY     18  13  80 NW10      30.43S WCI   6          
PERRY *        FAIR      10   6  82 CALM      30.44S                  
$$
 
IAZ004>006-015-016-023>025-035-036-181700-
   NORTH CENTRAL IOWA
  
CITY           SKY/WX    TMP DP  RH WIND       PRES   REMARKS
ALGONA *       SUNNY      5   1  85 N7G13     30.40R WCI  -7          
CLARION *      SUNNY      3  -2  78 NW8       30.42R WCI -10          
ESTHERVILLE    MOSUNNY    3  -2  79 NW10      30.42R WCI -12          
FORT DODGE *   SUNNY     10   1  67 NW8       30.44R WCI  -2          
MASON CITY     CLOUDY     6   3  87 NW9       30.41R WCI  -8          
FOREST CITY *  FAIR      10   5  79 N10       30.40R WCI  -3          
IOWA FALLS *   FAIR      11   6  80 NW8       30.41R WCI  -1          
$$

IAZ007>011-017>019-026>030-037>042-050>054-066-181700-
   NORTHEAST IOWA
  
CITY           SKY/WX    TMP DP  RH WIND       PRES   REMARKS
CEDAR RAPIDS   FAIR      12  10  92 W8        30.38R WCI   0          
CHARLES CITY * FAIR       7   3  85 N7        30.39R WCI  -5          
CLINTON *      FAIR      23  17  78 N8        30.37R WCI  14          
DECORAH *      FAIR      14  12  92 VRB5      30.35R WCI   6          
DUBUQUE        FAIR      19  12  74 N8        30.34R WCI   9          
OELWEIN *      FAIR       7   5  92 NW6       30.37R WCI  -3          
WATERLOO       FAIR      13   7  77 NW7       30.40R WCI   3          
$$
 
IAZ064-065-067-068-078-181700-
   EAST CENTRAL IOWA
  
CITY           SKY/WX    TMP DP  RH WIND       PRES   REMARKS
DAVENPORT      FAIR      18  13  80 NW9       30.38R WCI   7          
IOWA CITY      FAIR      22  15  75 NW6       30.41R WCI  14          
MT. PLEASANT * SUNNY     25  19  80 N9        30.39R WCI  15          
MUSCATINE *    FAIR      21  16  79 N9        30.41R WCI  11          
QUAD CITIES    PTSUNNY   23  15  71 CALM      30.37R                  
$$
 
IAZ062-063-075>077-085>089-095>099-181700-
   SOUTHEAST IOWA
  
CITY           SKY/WX    TMP DP  RH WIND       PRES   REMARKS
BURLINGTON     SUNNY     23  15  71 N10       30.38R WCI  12          
FAIRFIELD *    SUNNY     16  12  86 NW8       30.40R WCI   5          
KEOKUK *       MOSUNNY   23  18  80 N9        30.38S WCI  13          
OSKALOOSA *    FAIR      13  10  87 NW7       30.41R WCI   3          
OTTUMWA        SUNNY     19  14  81 NW10      30.40R WCI   7          
WASHINGTON *   PTSUNNY   18  14  86 NW10      30.41R WCI   6          
$$

ABBREVIATIONS USED IN REMARKS
   TC - TEMPERATURES IN CELSIUS
  WCI - WIND CHILL INDEX
   HX - HEAT INDEX
  VSB - VISIBILITY  
$$